Showing default

CANX-4, 40055

Orbit data source: Space-Track

CANX-4, 40055 is a payload satellite owned by UTIAS-SFL (CA) in SSO that was launched on Mon, 30 Jun 2014 UTC via a PSLV launch vehicle from the Sirharikota (SRI). Payload-class satellites include a variety of spacecraft equipped with specific instruments for various scientific and technological missions. These include communications satellites like Starlink; space stations such as the ISS; scientific satellites like the Hubble; Earth observation satellites from companies like Planet Labs, Umbra, and HawkEye 360; GPS; miniature CubeSats for education and research; and military/defense satellites.

Loading next visibility...
Identifier
40055, 2014-034C
Orbit
SSO
Last TLE update
10 hours ago
Origin
Manufacturer
UTIAS-SFL
Mission
Operational Amateur Technology
Bus & Motor
GNB, Unknown motor
Mass
7 kg wet, 7 kg dry
Launch date (UTC)
2014-06-30 (11 years ago)
Launch vehicle
PSLV
Launch site
Sirharikota (SRI)
Object type
Payload
Rocket body
Debris
Shape & HBR
Box + 4 Ant, 0.1 m
Radar Cross Section
0.060 m², Medium (>0.1 m² and < 1m²)

Expand to show TLE details & history

TLE from 10 hours ago
0 CANX-4
1 40055U 14034C   25199.55308537  .00000735  00000-0  10396-3 0  9995
2 40055  98.3588  56.8781 0013172   8.5557 351.5876 14.80288955595156
Epoch: 2025-07-18T13:16Z
TLE epoch observation values (Epoch: 2025-07-18T13:16:26.575Z)
Latitude
-0.00003°
Longitude
-78.83552°
Altitude
622.289 km
Speed
7.553 km/s
True Right ascension
03h 47m 30s
True Declination
0° 00' 00"
Sunlit
Object was in daylight at epoch
Visualization orbit readout
Latitude
37.54059°
Longitude
108.0622°
Altitude
640.131 km
Speed
7.538 km/s
Apparent Right ascension
19h 53m 52s
Apparent Declination
2° 05' 35"
Sunlit
Object is in daylight
Visualization observer readout
Local Sidereal Time
12:26:27
Azimuth
73.955° E
Elevation
-15.184°
Doppler factor
1
Orbital elements
Apogee altitude
634.699 km
Perigee altitude
616.249 km
Semi-major axis
7,003.611 km
Eccentricity
0.00132
Inclination
98.3588°
RAAN
56.8781°
Arg. of periapsis
8.5557°
True anomaly
351.56548°
Mean anomaly
351.5876°
Eccentric anomaly
351.57654°
Mean motion
3.70306 °/min
Orbital period
97.22 mins
BSTAR
0.00010396
Loading maneuver chart data...
Loading SW <> Apogee altitude chart data...
Loading historical data...
Loading historical data...
Loading historical data...
Loading historical data...
Loading historical data...
Loading historical data...
Loading historical data...
Other satellites on launch #34 in the year 2014 (2014-06-30 UTC)
|